Weather History for Wolf Creek Pass, CO

Change the Weather History Date:

Saturday, June 15, 2013

  Actual Average (KALS) Record (KALS)
Temperature  
Mean Temperature 50 °F 60 °F  
Max Temperature 59 °F 79 °F 88 °F (2000)
Min Temperature 41 °F 40 °F 26 °F (2001)
Degree Days  
Heating Degree Days 15 6  
Month to date heating degree days 112  
Since 1 June heating degree days 112  
Since 1 July heating degree days 8538  
Cooling Degree Days 0 0  
Month to date cooling degree days 0  
Year to date cooling degree days 0  
Since 1 June cooling degree days 0  
Moisture  
Dew Point 25 °F    
Average Humidity 42    
Maximum Humidity 70    
Minimum Humidity 22    
Precipitation  
Precipitation 0.00 in 0.02 in 0.17 in (1972)
Month to date precipitation 0.22  
Year to date precipitation 2.44  
Snow  
Snow 0.00 in 0.00 in 0.00 in (2002)
Month to date snowfall 0.0  
Since 1 June snowfall 0.0  
Since 1 July snowfall 27.6  
Snow Depth -    
Sea Level Pressure  
Sea Level Pressure 30.53 in    
Wind  
Wind Speed - (North)    
Max Wind Speed -    
Max Gust Speed -    
Visibility 10 miles    
Events Thunderstorm    
T = Trace of Precipitation, MM = Missing Value Source: NWS Daily Summary

Daily Weather History Graph

Daily Weather History Graph

Search for Another Location

Airport:

Trip Planner

Search our weather history database for the weather conditions in past years. The results will help you decide how hot, cold, wet, or windy it might be!

Date:

Astronomy

Jun. 15, 2013 Rise Set
Actual Time 5:45 AM MDT 8:29 PM MDT
Civil Twilight 5:14 AM MDT 9:01 PM MDT
Nautical Twilight 4:35 AM MDT 9:39 PM MDT
Astronomical Twilight 3:51 AM MDT 10:23 PM MDT
Moon 12:15 PM MDT (6/15) 12:13 AM MDT (6/15)
Length of Visible Light 15h 46m
Length of Day
14h 44m
Waxing Crescent, 40% of the Moon is Illuminated
Jun 15
Waxing Crescent
Jun 16
First Quarter
Jun 23
Full
Jun 29
Last Quarter
Jul 8
New

Hourly Weather History & Observations

Time (MDT) Temp. Dew Point Humidity Pressure Visibility Wind Dir Wind Speed Gust Speed Precip Events Conditions
12:15 AM 48.2 °F 12.2 °F 24% 30.49 in 10.0 mi North - - N/A   Clear
12:35 AM 46.4 °F 12.2 °F 25% 30.49 in 10.0 mi North - - N/A   Clear
12:55 AM 48.2 °F 10.4 °F 22% 30.49 in 10.0 mi North - - N/A   Clear
1:15 AM 46.4 °F 10.4 °F 23% 30.49 in 10.0 mi North - - N/A   Clear
1:35 AM 46.4 °F 10.4 °F 23% 30.48 in 10.0 mi North - - N/A   Clear
1:55 AM 46.4 °F 10.4 °F 23% 30.48 in 10.0 mi North - - N/A   Clear
2:15 AM 46.4 °F 10.4 °F 23% 30.48 in 10.0 mi North - - N/A   Clear
2:35 AM 46.4 °F 10.4 °F 23% 30.48 in 10.0 mi North - - N/A   Clear
2:55 AM 46.4 °F 10.4 °F 23% 30.48 in 10.0 mi North - - N/A   Clear
3:15 AM 44.6 °F 12.2 °F 27% 30.47 in 10.0 mi North - - N/A   Clear
3:35 AM 44.6 °F 14.0 °F 29% 30.47 in 10.0 mi North - - N/A   Clear
3:55 AM 42.8 °F 17.6 °F 36% 30.48 in 10.0 mi North - - N/A   Clear
4:15 AM 42.8 °F 21.2 °F 42% 30.48 in 10.0 mi North - - N/A   Clear
4:35 AM 42.8 °F 26.6 °F 53% 30.48 in 10.0 mi North - - N/A   Clear
4:55 AM 41.0 °F 28.4 °F 61% 30.49 in 10.0 mi North - - N/A   Clear
5:15 AM 41.0 °F 30.2 °F 65% 30.49 in 10.0 mi North - - N/A   Clear
5:35 AM 41.0 °F 32.0 °F 70% 30.49 in 10.0 mi North - - N/A   Clear
5:55 AM 41.0 °F 32.0 °F 70% 30.50 in 10.0 mi North - - N/A   Clear
6:15 AM 42.8 °F 32.0 °F 66% 30.51 in 10.0 mi North - - N/A   Clear
6:35 AM 42.8 °F 32.0 °F 66% 30.51 in 10.0 mi North - - N/A   Clear
6:55 AM 44.6 °F 32.0 °F 61% 30.52 in 10.0 mi North - - N/A   Clear
7:15 AM 44.6 °F 32.0 °F 61% 30.52 in 10.0 mi North - - N/A   Clear
7:35 AM 44.6 °F 32.0 °F 61% 30.52 in 10.0 mi North - - N/A   Clear
7:55 AM 46.4 °F 32.0 °F 57% 30.53 in 10.0 mi North - - N/A   Clear
8:15 AM 48.2 °F 32.0 °F 54% 30.54 in 10.0 mi North - - N/A   Clear
8:35 AM 50.0 °F 32.0 °F 50% 30.54 in 10.0 mi North - - N/A   Clear
8:55 AM 51.8 °F 28.4 °F 41% 30.54 in 10.0 mi North - - N/A   Clear
9:15 AM 51.8 °F 32.0 °F 47% 30.54 in 10.0 mi North - - N/A   Clear
9:35 AM 51.8 °F 32.0 °F 47% 30.54 in 10.0 mi North - - N/A   Clear
9:55 AM 51.8 °F 30.2 °F 44% 30.54 in 10.0 mi North - - N/A   Clear
10:15 AM 53.6 °F 28.4 °F 38% 30.54 in 10.0 mi North - - N/A   Clear
10:35 AM 53.6 °F 26.6 °F 35% 30.55 in 10.0 mi North - - N/A   Clear
10:55 AM 53.6 °F 26.6 °F 35% 30.55 in 10.0 mi North - - N/A   Clear
11:15 AM 55.4 °F 24.8 °F 31% 30.55 in 10.0 mi North - - N/A   Clear
11:35 AM 55.4 °F 24.8 °F 31% 30.55 in 10.0 mi North - - N/A   Clear
11:55 AM 53.6 °F 23.0 °F 30% 30.55 in 10.0 mi North - - N/A   Scattered Clouds
12:15 PM 55.4 °F 23.0 °F 29% 30.55 in 10.0 mi North - - N/A   Scattered Clouds
12:35 PM 55.4 °F 26.6 °F 33% 30.55 in 10.0 mi North - - N/A   Scattered Clouds
12:55 PM 53.6 °F 26.6 °F 35% 30.55 in 10.0 mi North - - N/A   Mostly Cloudy
1:15 PM 55.4 °F 26.6 °F 33% 30.55 in 10.0 mi North - - N/A   Mostly Cloudy
1:35 PM 57.2 °F 24.8 °F 29% 30.54 in 10.0 mi North - - N/A Thunderstorm Scattered Clouds
1:55 PM 57.2 °F 26.6 °F 31% 30.53 in 10.0 mi North - - N/A   Clear
2:15 PM 57.2 °F 23.0 °F 27% 30.53 in 10.0 mi North - - N/A   Scattered Clouds
2:35 PM 59.0 °F 24.8 °F 27% 30.54 in 10.0 mi North - - N/A   Clear
2:55 PM 55.4 °F 23.0 °F 29% 30.52 in 10.0 mi North - - N/A   Scattered Clouds
3:15 PM 55.4 °F 23.0 °F 29% 30.52 in 10.0 mi North - - N/A   Scattered Clouds
3:35 PM 59.0 °F 24.8 °F 27% 30.52 in 10.0 mi North - - N/A   Clear
3:55 PM 59.0 °F 23.0 °F 25% 30.52 in 10.0 mi North - - N/A   Clear
4:15 PM 57.2 °F 24.8 °F 29% 30.52 in 10.0 mi North - - N/A   Clear
4:35 PM 57.2 °F 24.8 °F 29% 30.52 in 10.0 mi North - - N/A   Clear
4:55 PM 55.4 °F 23.0 °F 29% 30.51 in 10.0 mi North - - N/A   Clear
5:15 PM 55.4 °F 23.0 °F 29% 30.51 in 10.0 mi North - - N/A   Clear
5:35 PM 53.6 °F 21.2 °F 28% 30.51 in 10.0 mi North - - N/A   Mostly Cloudy
5:55 PM 51.8 °F 23.0 °F 33% 30.52 in 10.0 mi North - - N/A   Overcast
6:15 PM 51.8 °F 23.0 °F 33% 30.52 in 10.0 mi North - - N/A   Mostly Cloudy
6:35 PM 50.0 °F 24.8 °F 37% 30.54 in 10.0 mi North - - N/A   Mostly Cloudy
6:55 PM 48.2 °F 24.8 °F 40% 30.55 in 10.0 mi North - - N/A   Overcast
7:15 PM 46.4 °F 26.6 °F 46% 30.56 in 10.0 mi North - - N/A   Mostly Cloudy
7:35 PM 46.4 °F 24.8 °F 43% 30.56 in 10.0 mi North - - N/A   Mostly Cloudy
7:55 PM 46.4 °F 26.6 °F 46% 30.57 in 10.0 mi North - - N/A   Overcast
8:15 PM 44.6 °F 28.4 °F 53% 30.59 in 10.0 mi North - - N/A   Overcast
8:35 PM 44.6 °F 28.4 °F 53% 30.59 in 10.0 mi North - - N/A   Overcast
8:55 PM 44.6 °F 28.4 °F 53% 30.59 in 10.0 mi North - - N/A   Overcast
9:15 PM 42.8 °F 28.4 °F 57% 30.58 in 10.0 mi North - - N/A   Overcast
9:35 PM 41.0 °F 28.4 °F 61% 30.58 in 10.0 mi North - - N/A   Mostly Cloudy
9:55 PM 41.0 °F 28.4 °F 61% 30.57 in 10.0 mi North - - N/A   Clear
10:15 PM 42.8 °F 28.4 °F 57% 30.59 in 10.0 mi North - - N/A   Clear
10:35 PM 42.8 °F 28.4 °F 57% 30.58 in 10.0 mi North - - N/A   Clear
10:55 PM 41.0 °F 30.2 °F 65% 30.57 in 7.0 mi North - - N/A   Clear
11:15 PM 41.0 °F 30.2 °F 65% 30.58 in 10.0 mi North - - N/A   Clear
11:35 PM 41.0 °F 30.2 °F 65% 30.58 in 10.0 mi North - - N/A   Clear
11:55 PM 41.0 °F 30.2 °F 65% 30.57 in 10.0 mi North - - N/A   Clear